NOAA 16 DEB, 42400

Orbit data source: Space-Track

NOAA 16 DEB, 42400 is space debris in SSO originally from a launch on Thu, 21 Sep 2000 UTC launched from the Air Force Western Test Range (AFWTR). Debris objects in space refer to the collection of defunct objects orbiting the Earth. Examples of debris include non-operational satellites, rocket bodies, and fragments generated from explosions, collisions, or faulty payload assembly.

Loading next visibility...
Identifier
42400, 2000-055SU
Orbit
SSO
Country
Flag of USUS
Related business
Manufacturer
Unknown
Mission
Spacecraft
Bus & Motor
Unknown
Mass
Unknown
Launch date (UTC)
2000-09-21 (25 years ago)
Launch vehicle
Unknown
Launch site
Air Force Western Test Range (AFWTR)
Object type
Payload
Rocket body
Debris
Shape & HBR
Unknown shape, 0.1 m
Radar Cross Section
Small (<0.1 m²)

Expand to show TLE details & history
Last TLE update: 1 day ago

TLE from 1 day ago
0 NOAA 16 DEB
1 42400U 00055SU  25348.59676797  .00003350  00000-0  14660-2 0  9998
2 42400  98.6552  33.6374 0022474 214.8309 145.1400 14.24271720500335
Epoch: 2025-12-14T14:19Z
TLE epoch observation values (Epoch: 2025-12-14T14:19:20.752Z)
Latitude
-0.00004°
Longitude
95.29353°
Altitude
827.136 km
Speed
7.433 km/s
True Right ascension
02h 14m 32s
True Declination
0° 00' 00"
Sunlit
Object was in full shadow at epoch
Visualization orbit readout
Latitude
Unknown
Longitude
Unknown
Altitude
Unknown
Speed
Unknown
Apparent Right ascension
Unknown
Apparent Declination
Unknown
Sunlit
N/A
Visualization observer readout
Local Sidereal Time
22:32:37
Azimuth
Unknown
Elevation
Unknown
Doppler factor
Unknown
Orbital elements
Apogee altitude
824.243 km
Perigee altitude
791.942 km
Semi-major axis
7,186.23 km
Eccentricity
0.00225
Inclination
98.6552°
RAAN
33.6374°
Arg. of periapsis
214.8309°
True anomaly
145.28686°
Mean anomaly
145.14°
Eccentric anomaly
145.21346°
Mean motion
3.5628 °/min
Orbital period
101.04 mins
BSTAR
0.001466
Loading maneuver chart data...
Computing Atmospheric mass density...
Loading historical data...
Loading historical data...
Loading historical data...
Loading historical data...
Loading historical data...
Loading historical data...
Loading historical data...

Documentation

Showing up to 5 results
|